IBC3166 LEMD-EGLL

Flight info

Callsign IBC3166
Flight time 1h 56m
Altitude 32000
Route SIE N865 DELOG DCT DEGEX DCT JSY DCT REVTU UP87 ROXOG
Aircraft A346/H-SDE2E3FGHIJ3J4J5M1RWXY/LB1D1

Departure

Time 2026-05-08 07:18
Airport Adolfo Suárez Madrid–Barajas Airport (LEMD)

Arrival

Time 2026-05-08 09:14
Airport London Heathrow Airport (EGLL)
Time Latitude Longitude Altitude Speed Heading
2026-05-08 06:57 40.46079 -3.56634 1953 ft 0 kts 268°
2026-05-08 06:59 40.46079 -3.56633 1953 ft 0 kts 268°
2026-05-08 07:00 40.46079 -3.56634 1953 ft 0 kts 268°
2026-05-08 07:01 40.46080 -3.56630 1953 ft 0 kts 268°
2026-05-08 07:01 40.46080 -3.56598 1956 ft 0 kts 268°
2026-05-08 07:01 40.46081 -3.56563 1957 ft 0 kts 268°
2026-05-08 07:01 40.46082 -3.56528 1957 ft 0 kts 268°
2026-05-08 07:02 40.46083 -3.56495 1955 ft 0 kts 269°
2026-05-08 07:02 40.46083 -3.56490 1955 ft 0 kts 269°
2026-05-08 07:08 40.46099 -3.56514 1956 ft 11 kts 342°
2026-05-08 07:08 40.46155 -3.56507 1954 ft 12 kts
2026-05-08 07:09 40.46301 -3.56500 1956 ft 30 kts
2026-05-08 07:09 40.46396 -3.56489 1957 ft 12 kts
2026-05-08 07:09 40.46481 -3.56480 1959 ft 12 kts
2026-05-08 07:09 40.46569 -3.56476 1960 ft 13 kts
2026-05-08 07:10 40.46659 -3.56471 1961 ft 13 kts
2026-05-08 07:10 40.46750 -3.56466 1963 ft 13 kts
2026-05-08 07:10 40.46843 -3.56457 1964 ft 13 kts
2026-05-08 07:10 40.46937 -3.56448 1968 ft 14 kts
2026-05-08 07:11 40.47037 -3.56455 1971 ft 15 kts 349°
2026-05-08 07:11 40.47137 -3.56500 1968 ft 16 kts 332°
2026-05-08 07:11 40.47231 -3.56590 1963 ft 17 kts 321°
2026-05-08 07:11 40.47329 -3.56695 1979 ft 19 kts 321°
2026-05-08 07:12 40.47438 -3.56803 1980 ft 20 kts 324°
2026-05-08 07:12 40.47553 -3.56919 1981 ft 21 kts 321°
2026-05-08 07:12 40.47672 -3.57042 1983 ft 22 kts 323°
2026-05-08 07:12 40.47799 -3.57169 1987 ft 23 kts 322°
2026-05-08 07:13 40.47930 -3.57302 1989 ft 24 kts 322°
2026-05-08 07:13 40.48063 -3.57438 1992 ft 24 kts 322°
2026-05-08 07:13 40.48199 -3.57576 1995 ft 25 kts 322°
2026-05-08 07:13 40.48338 -3.57717 1997 ft 25 kts 323°
2026-05-08 07:14 40.48489 -3.57851 1996 ft 28 kts 330°
2026-05-08 07:14 40.48661 -3.57933 1984 ft 25 kts 356°
2026-05-08 07:14 40.48791 -3.57934 1969 ft 1 kts 360°
2026-05-08 07:14 40.48837 -3.57934 1964 ft 12 kts 360°
2026-05-08 07:15 40.48953 -3.57934 1952 ft 22 kts 360°
2026-05-08 07:15 40.49119 -3.57934 1942 ft 18 kts
2026-05-08 07:15 40.49173 -3.57794 1936 ft 21 kts 89°
2026-05-08 07:15 40.49187 -3.57589 1931 ft 23 kts 68°
2026-05-08 07:16 40.49265 -3.57462 1932 ft 0 kts
2026-05-08 07:16 40.49268 -3.57462 1932 ft 1 kts
2026-05-08 07:16 40.49305 -3.57460 1933 ft 11 kts 359°
2026-05-08 07:16 40.49324 -3.57460 1933 ft 0 kts 359°
2026-05-08 07:17 40.49528 -3.57463 1936 ft 69 kts 359°
2026-05-08 07:17 40.50276 -3.57466 1947 ft 142 kts
2026-05-08 07:18 40.51478 -3.57479 1987 ft 199 kts
2026-05-08 07:18 40.52964 -3.57477 2429 ft 224 kts
2026-05-08 07:18 40.54505 -3.57491 3299 ft 219 kts 360°
2026-05-08 07:18 40.56006 -3.57373 4215 ft 218 kts 11°
2026-05-08 07:19 40.57543 -3.56886 4902 ft 237 kts 18°
2026-05-08 07:19 40.59152 -3.56197 5657 ft 254 kts 19°
2026-05-08 07:19 40.60856 -3.55448 6533 ft 261 kts 18°
2026-05-08 07:19 40.62606 -3.54700 7249 ft 268 kts 16°
2026-05-08 07:20 40.64448 -3.54181 7985 ft 274 kts
2026-05-08 07:20 40.66359 -3.53949 8755 ft 278 kts
2026-05-08 07:20 40.68302 -3.53791 9519 ft 282 kts
2026-05-08 07:20 40.70277 -3.53637 10218 ft 286 kts
2026-05-08 07:21 40.72270 -3.53470 10877 ft 289 kts
2026-05-08 07:21 40.74255 -3.53300 11524 ft 291 kts
2026-05-08 07:21 40.76288 -3.53314 12183 ft 294 kts 355°
2026-05-08 07:21 40.78356 -3.53607 12686 ft 307 kts 351°
2026-05-08 07:22 40.80527 -3.54014 13044 ft 323 kts 351°
2026-05-08 07:22 40.82814 -3.54458 13398 ft 341 kts 351°
2026-05-08 07:22 40.85219 -3.54915 13731 ft 358 kts 351°
2026-05-08 07:22 40.87752 -3.55385 14016 ft 376 kts 351°
2026-05-08 07:23 40.90360 -3.55866 14293 ft 392 kts 351°
2026-05-08 07:23 40.93116 -3.56376 14642 ft 406 kts 351°
2026-05-08 07:23 40.95939 -3.56896 15238 ft 412 kts 351°
2026-05-08 07:23 40.98796 -3.57421 15932 ft 416 kts 351°
2026-05-08 07:24 41.01676 -3.57952 16570 ft 422 kts 351°
2026-05-08 07:24 41.04599 -3.58493 17180 ft 427 kts 351°
2026-05-08 07:24 41.07568 -3.59044 17789 ft 433 kts 350°
2026-05-08 07:24 41.10569 -3.59603 18391 ft 438 kts 350°
2026-05-08 07:25 41.13563 -3.60159 18885 ft 443 kts 351°
2026-05-08 07:25 41.16638 -3.60697 19453 ft 448 kts 352°
2026-05-08 07:25 41.22914 -3.61087 20593 ft 457 kts
2026-05-08 07:26 41.26104 -3.60947 21154 ft 460 kts
2026-05-08 07:26 41.29319 -3.60890 21723 ft 464 kts 359°
2026-05-08 07:26 41.32555 -3.60918 22290 ft 467 kts 358°
2026-05-08 07:26 41.35812 -3.60978 22865 ft 470 kts 358°
2026-05-08 07:27 41.39093 -3.61055 23405 ft 474 kts 358°
2026-05-08 07:27 41.42357 -3.61138 23846 ft 478 kts 358°
2026-05-08 07:27 41.45692 -3.61224 24285 ft 481 kts 358°
2026-05-08 07:27 41.49053 -3.61311 24724 ft 485 kts 358°
2026-05-08 07:28 41.52434 -3.61379 25184 ft 487 kts 359°
2026-05-08 07:28 41.55824 -3.61393 25798 ft 486 kts
2026-05-08 07:28 41.59193 -3.61385 26470 ft 484 kts
2026-05-08 07:28 41.62558 -3.61374 27105 ft 482 kts
2026-05-08 07:29 41.65905 -3.61364 27711 ft 482 kts
2026-05-08 07:29 41.69215 -3.61356 28288 ft 481 kts
2026-05-08 07:29 41.72560 -3.61349 28901 ft 480 kts
2026-05-08 07:29 41.75897 -3.61346 29515 ft 479 kts
2026-05-08 07:30 41.79230 -3.61347 30109 ft 478 kts
2026-05-08 07:30 41.82553 -3.61347 30584 ft 478 kts
2026-05-08 07:30 41.85886 -3.61345 30988 ft 480 kts 360°
2026-05-08 07:30 41.89236 -3.61346 31365 ft 482 kts 360°
2026-05-08 07:31 41.92593 -3.61346 31746 ft 484 kts 360°
2026-05-08 07:31 41.95961 -3.61343 31941 ft 485 kts 359°
2026-05-08 07:31 41.99295 -3.61342 31935 ft 485 kts 359°
2026-05-08 07:32 42.06038 -3.61554 31942 ft 485 kts 356°
2026-05-08 07:32 42.12777 -3.62002 31943 ft 485 kts 356°
2026-05-08 07:33 42.19516 -3.62451 31949 ft 484 kts 356°
2026-05-08 07:33 42.26201 -3.62888 31948 ft 484 kts 356°
2026-05-08 07:34 42.30705 -3.63180 31950 ft 484 kts 356°
2026-05-08 07:34 42.39623 -3.64218 31950 ft 482 kts 351°
2026-05-08 07:35 42.46266 -3.65550 31949 ft 482 kts 350°
2026-05-08 07:35 42.52865 -3.66891 31948 ft 482 kts 350°
2026-05-08 07:36 42.59500 -3.68220 31947 ft 481 kts 350°
2026-05-08 07:36 42.66120 -3.69544 31948 ft 481 kts 350°
2026-05-08 07:37 42.72746 -3.70778 31937 ft 481 kts 352°
2026-05-08 07:37 42.79384 -3.71886 31938 ft 481 kts 352°
2026-05-08 07:38 42.85982 -3.72996 31936 ft 481 kts 352°
2026-05-08 07:38 42.92618 -3.74127 31936 ft 481 kts 351°
2026-05-08 07:39 42.99256 -3.75263 31925 ft 480 kts 351°
2026-05-08 07:39 43.05878 -3.76401 31915 ft 480 kts 351°
2026-05-08 07:40 43.12453 -3.77534 31903 ft 480 kts 351°
2026-05-08 07:40 43.19080 -3.78677 31898 ft 479 kts 351°
2026-05-08 07:41 43.25691 -3.79820 31876 ft 479 kts 351°
2026-05-08 07:41 43.32304 -3.80968 31868 ft 479 kts 351°
2026-05-08 07:42 43.38919 -3.82119 31875 ft 479 kts 351°
2026-05-08 07:42 43.45488 -3.83265 31868 ft 479 kts 352°
2026-05-08 07:43 43.52104 -3.84419 31865 ft 479 kts 352°
2026-05-08 07:43 43.58719 -3.85575 31871 ft 479 kts 351°
2026-05-08 07:44 43.65318 -3.86731 31875 ft 478 kts 351°
2026-05-08 07:44 43.71876 -3.87884 31877 ft 478 kts 351°
2026-05-08 07:45 43.78482 -3.89047 31872 ft 478 kts 351°
2026-05-08 07:45 43.85073 -3.90210 31873 ft 478 kts 351°
2026-05-08 07:46 43.91616 -3.91368 31876 ft 477 kts 351°
2026-05-08 07:46 43.98205 -3.92535 31873 ft 477 kts 351°
2026-05-08 07:47 44.04778 -3.93703 31877 ft 476 kts 351°
2026-05-08 07:47 44.11353 -3.94877 31881 ft 476 kts 351°
2026-05-08 07:48 44.17925 -3.96049 31883 ft 476 kts 351°
2026-05-08 07:48 44.24441 -3.97215 31879 ft 475 kts 351°
2026-05-08 07:49 44.31040 -3.97929 31878 ft 477 kts 358°
2026-05-08 07:49 44.37669 -3.97546 31887 ft 477 kts
2026-05-08 07:50 44.44235 -3.96205 31882 ft 477 kts
2026-05-08 07:50 44.50735 -3.94675 31886 ft 477 kts
2026-05-08 07:51 44.57272 -3.93143 31895 ft 476 kts
2026-05-08 07:51 44.63811 -3.91625 31888 ft 476 kts
2026-05-08 07:52 44.70346 -3.90113 31884 ft 476 kts
2026-05-08 07:52 44.76880 -3.88598 31892 ft 476 kts
2026-05-08 07:53 44.83370 -3.87090 31889 ft 476 kts
2026-05-08 07:53 44.89905 -3.85568 31888 ft 476 kts
2026-05-08 07:54 44.96437 -3.84039 31896 ft 475 kts
2026-05-08 07:54 45.02951 -3.82512 31891 ft 474 kts
2026-05-08 07:55 45.09409 -3.80998 31897 ft 474 kts
2026-05-08 07:55 45.15909 -3.79471 31903 ft 473 kts
2026-05-08 07:56 45.22395 -3.77943 31906 ft 472 kts
2026-05-08 07:56 45.28879 -3.76413 31907 ft 472 kts
2026-05-08 07:57 45.35318 -3.74887 31913 ft 472 kts
2026-05-08 07:57 45.41791 -3.73350 31909 ft 471 kts
2026-05-08 07:58 45.48262 -3.71812 31919 ft 471 kts
2026-05-08 07:58 45.54729 -3.70269 31922 ft 471 kts
2026-05-08 07:59 45.61194 -3.68724 31920 ft 471 kts
2026-05-08 07:59 45.67614 -3.67187 31921 ft 471 kts
2026-05-08 08:00 45.74072 -3.65635 31933 ft 471 kts
2026-05-08 08:00 45.80534 -3.64079 31937 ft 470 kts
2026-05-08 08:01 45.86987 -3.62525 31935 ft 470 kts
2026-05-08 08:01 45.93398 -3.60974 31944 ft 470 kts
2026-05-08 08:02 45.99841 -3.59411 31939 ft 469 kts
2026-05-08 08:02 46.06293 -3.57846 31944 ft 469 kts
2026-05-08 08:03 46.12727 -3.56275 31961 ft 467 kts
2026-05-08 08:03 46.19128 -3.54712 31947 ft 467 kts
2026-05-08 08:04 46.25486 -3.53160 31946 ft 467 kts
2026-05-08 08:04 46.31888 -3.51592 31966 ft 467 kts
2026-05-08 08:05 46.38284 -3.50017 31960 ft 466 kts
2026-05-08 08:05 46.44677 -3.48443 31961 ft 466 kts
2026-05-08 08:06 46.51024 -3.46877 31957 ft 466 kts
2026-05-08 08:06 46.57409 -3.45294 31963 ft 465 kts
2026-05-08 08:07 46.63792 -3.43711 31962 ft 465 kts
2026-05-08 08:07 46.70169 -3.42125 31965 ft 465 kts
2026-05-08 08:08 46.76549 -3.40535 31968 ft 465 kts
2026-05-08 08:08 46.82885 -3.38952 31971 ft 465 kts
2026-05-08 08:09 46.89265 -3.37353 31974 ft 465 kts
2026-05-08 08:09 46.95639 -3.35750 31978 ft 464 kts
2026-05-08 08:10 47.01996 -3.34150 31976 ft 464 kts
2026-05-08 08:10 47.08318 -3.32556 31977 ft 464 kts
2026-05-08 08:11 47.14680 -3.30946 31985 ft 464 kts
2026-05-08 08:11 47.21029 -3.29332 31980 ft 462 kts
2026-05-08 08:12 47.27358 -3.27725 31980 ft 462 kts
2026-05-08 08:12 47.33647 -3.26125 31980 ft 462 kts
2026-05-08 08:13 47.39972 -3.24506 31985 ft 461 kts
2026-05-08 08:13 47.46289 -3.22891 31982 ft 461 kts
2026-05-08 08:14 47.52610 -3.21270 31986 ft 461 kts
2026-05-08 08:14 47.58919 -3.19646 31996 ft 460 kts
2026-05-08 08:15 47.65181 -3.18032 31995 ft 460 kts
2026-05-08 08:15 47.71459 -3.16068 31995 ft 463 kts 11°
2026-05-08 08:16 47.77597 -3.13054 32011 ft 466 kts 17°
2026-05-08 08:16 47.82512 -3.09775 31988 ft 466 kts 21°
2026-05-08 08:17 47.89265 -3.04818 31985 ft 465 kts 22°
2026-05-08 08:17 47.95069 -3.00539 31996 ft 465 kts 22°
2026-05-08 08:18 47.99878 -2.96995 32004 ft 464 kts 22°
2026-05-08 08:18 48.05640 -2.92744 32003 ft 462 kts 21°
2026-05-08 08:19 48.12336 -2.87801 32009 ft 462 kts 21°
2026-05-08 08:19 48.17132 -2.84251 31991 ft 462 kts 21°
2026-05-08 08:20 48.22887 -2.79976 32008 ft 461 kts 21°
2026-05-08 08:20 48.28637 -2.75700 32012 ft 461 kts 21°
2026-05-08 08:21 48.34380 -2.71417 32010 ft 461 kts 21°
2026-05-08 08:21 48.40125 -2.67122 32012 ft 461 kts 21°
2026-05-08 08:22 48.45864 -2.62816 32016 ft 460 kts 21°
2026-05-08 08:22 48.51565 -2.58532 32022 ft 460 kts 21°
2026-05-08 08:23 48.57266 -2.54233 32021 ft 458 kts 21°
2026-05-08 08:23 48.62966 -2.49931 32040 ft 458 kts 21°
2026-05-08 08:24 48.68660 -2.45617 32019 ft 457 kts 21°
2026-05-08 08:24 48.74348 -2.41301 32030 ft 457 kts 21°
2026-05-08 08:25 48.80034 -2.36973 32028 ft 457 kts 21°
2026-05-08 08:25 48.85680 -2.32665 32027 ft 457 kts 21°
2026-05-08 08:26 48.91361 -2.28318 32038 ft 457 kts 21°
2026-05-08 08:26 48.97049 -2.23956 32036 ft 457 kts 21°
2026-05-08 08:27 49.02722 -2.19593 32044 ft 457 kts 21°
2026-05-08 08:27 49.08380 -2.15225 32046 ft 454 kts 21°
2026-05-08 08:28 49.13969 -2.10910 32034 ft 453 kts 21°
2026-05-08 08:28 49.19600 -2.06549 32032 ft 453 kts 21°
2026-05-08 08:29 49.25197 -2.02073 32045 ft 455 kts 23°
2026-05-08 08:29 49.30723 -1.97347 32054 ft 454 kts 23°
2026-05-08 08:30 49.36205 -1.92659 32044 ft 454 kts 23°
2026-05-08 08:30 49.44489 -1.85594 32049 ft 454 kts 23°
2026-05-08 08:31 49.50008 -1.80877 32047 ft 454 kts 23°
2026-05-08 08:31 49.55619 -1.76590 32063 ft 444 kts 16°
2026-05-08 08:32 49.61380 -1.73639 32055 ft 436 kts
2026-05-08 08:32 49.67299 -1.71974 32054 ft 430 kts
2026-05-08 08:33 49.73268 -1.71340 32060 ft 431 kts 358°
2026-05-08 08:33 49.79224 -1.70868 32059 ft 431 kts 358°
2026-05-08 08:34 49.85214 -1.70377 32054 ft 431 kts 358°
2026-05-08 08:34 49.91209 -1.69877 32056 ft 431 kts 358°
2026-05-08 08:35 49.97207 -1.69259 32071 ft 433 kts
2026-05-08 08:35 50.03111 -1.67551 31992 ft 436 kts
2026-05-08 08:36 50.06020 -1.66263 31059 ft 435 kts 12°
2026-05-08 08:36 50.08939 -1.64869 29474 ft 444 kts 13°
2026-05-08 08:36 50.11915 -1.63425 27784 ft 451 kts 14°
2026-05-08 08:36 50.14931 -1.61956 26267 ft 457 kts 15°
2026-05-08 08:37 50.17948 -1.60480 25276 ft 451 kts 15°
2026-05-08 08:37 50.20906 -1.59028 24578 ft 441 kts 16°
2026-05-08 08:37 50.23835 -1.57592 24181 ft 442 kts 17°
2026-05-08 08:37 50.26738 -1.56169 24070 ft 444 kts 16°
2026-05-08 08:38 50.29693 -1.54724 24065 ft 446 kts 16°
2026-05-08 08:38 50.32651 -1.53277 24065 ft 446 kts 16°
2026-05-08 08:38 50.35602 -1.51832 24024 ft 441 kts 17°
2026-05-08 08:38 50.38519 -1.50403 23403 ft 439 kts 17°
2026-05-08 08:39 50.41456 -1.48960 22245 ft 444 kts 17°
2026-05-08 08:39 50.44399 -1.47511 21451 ft 442 kts 17°
2026-05-08 08:39 50.47317 -1.46069 20697 ft 438 kts 17°
2026-05-08 08:39 50.50163 -1.44661 20198 ft 429 kts 18°
2026-05-08 08:40 50.52945 -1.43085 19722 ft 421 kts 21°
2026-05-08 08:40 50.55613 -1.41242 19300 ft 413 kts 25°
2026-05-08 08:40 50.58194 -1.39140 18991 ft 418 kts 28°
2026-05-08 08:40 50.60739 -1.36963 18521 ft 415 kts 28°
2026-05-08 08:41 50.63253 -1.34784 18054 ft 409 kts 28°
2026-05-08 08:41 50.65730 -1.32640 17604 ft 403 kts 29°
2026-05-08 08:41 50.68174 -1.30527 17206 ft 397 kts 29°
2026-05-08 08:41 50.70584 -1.28443 16779 ft 393 kts 29°
2026-05-08 08:42 50.72933 -1.26414 16397 ft 388 kts 28°
2026-05-08 08:42 50.75294 -1.24367 15985 ft 385 kts 30°
2026-05-08 08:42 50.77578 -1.22194 15589 ft 382 kts 32°
2026-05-08 08:42 50.79812 -1.19917 15182 ft 385 kts 33°
2026-05-08 08:43 50.82069 -1.17583 14801 ft 386 kts 33°
2026-05-08 08:43 50.84308 -1.15261 14404 ft 383 kts 33°
2026-05-08 08:43 50.86533 -1.12956 14011 ft 381 kts 33°
2026-05-08 08:43 50.88738 -1.10673 13596 ft 375 kts 33°
2026-05-08 08:44 50.90877 -1.08459 13466 ft 358 kts 33°
2026-05-08 08:44 50.92884 -1.06379 13374 ft 341 kts 33°
2026-05-08 08:44 50.94819 -1.04371 13284 ft 325 kts 33°
2026-05-08 08:44 50.96667 -1.02452 13186 ft 310 kts 33°
2026-05-08 08:45 50.98450 -1.00598 13104 ft 302 kts 33°
2026-05-08 08:45 51.00135 -0.98658 13085 ft 299 kts 40°
2026-05-08 08:45 51.01676 -0.96431 12903 ft 299 kts 47°
2026-05-08 08:45 51.03079 -0.94011 12499 ft 296 kts 49°
2026-05-08 08:46 51.04428 -0.91577 12209 ft 291 kts 49°
2026-05-08 08:46 51.05760 -0.89173 11910 ft 289 kts 49°
2026-05-08 08:46 51.07075 -0.86815 11636 ft 287 kts 49°
2026-05-08 08:46 51.08399 -0.84446 11366 ft 286 kts 49°
2026-05-08 08:47 51.09719 -0.82089 11095 ft 284 kts 49°
2026-05-08 08:47 51.11029 -0.79749 10806 ft 282 kts 49°
2026-05-08 08:47 51.12328 -0.77427 10532 ft 280 kts 49°
2026-05-08 08:47 51.13618 -0.75118 10278 ft 278 kts 49°
2026-05-08 08:48 51.14901 -0.72822 10018 ft 276 kts 49°
2026-05-08 08:48 51.16172 -0.70542 9730 ft 273 kts 49°
2026-05-08 08:48 51.17412 -0.68321 9451 ft 269 kts 49°
2026-05-08 08:48 51.18647 -0.66107 9203 ft 265 kts 49°
2026-05-08 08:49 51.19865 -0.63918 9081 ft 264 kts 49°
2026-05-08 08:49 51.21085 -0.61721 9082 ft 265 kts 49°
2026-05-08 08:49 51.22304 -0.59518 9078 ft 265 kts 50°
2026-05-08 08:49 51.23520 -0.57303 9085 ft 265 kts 50°
2026-05-08 08:50 51.24744 -0.55093 9084 ft 267 kts 46°
2026-05-08 08:50 51.26345 -0.53457 9058 ft 283 kts 14°
2026-05-08 08:50 51.28262 -0.53387 8718 ft 282 kts 342°
2026-05-08 08:50 51.29935 -0.54971 8172 ft 282 kts 309°
2026-05-08 08:51 51.31060 -0.57507 7854 ft 277 kts 300°
2026-05-08 08:51 51.32135 -0.60062 7597 ft 273 kts 303°
2026-05-08 08:51 51.33281 -0.62456 7383 ft 268 kts 307°
2026-05-08 08:51 51.34472 -0.64717 7110 ft 265 kts 309°
2026-05-08 08:52 51.35549 -0.67108 6724 ft 265 kts 295°
2026-05-08 08:52 51.36153 -0.69870 6344 ft 263 kts 278°
2026-05-08 08:52 51.36435 -0.72773 5963 ft 264 kts 278°
2026-05-08 08:52 51.36887 -0.75639 5544 ft 267 kts 287°
2026-05-08 08:53 51.37768 -0.78212 5149 ft 269 kts 310°
2026-05-08 08:53 51.39265 -0.79984 4739 ft 271 kts 339°
2026-05-08 08:53 51.41113 -0.80426 4287 ft 272 kts
2026-05-08 08:53 51.42971 -0.79883 3909 ft 271 kts 13°
2026-05-08 08:54 51.44711 -0.78946 3374 ft 259 kts 36°
2026-05-08 08:54 51.45868 -0.76881 2826 ft 243 kts 60°
2026-05-08 08:54 51.46648 -0.74575 2545 ft 227 kts 69°
2026-05-08 08:54 51.47149 -0.72322 2519 ft 202 kts 77°
2026-05-08 08:55 51.47460 -0.70224 2490 ft 188 kts 84°
2026-05-08 08:55 51.47597 -0.68152 2571 ft 190 kts 90°
2026-05-08 08:55 51.47644 -0.65874 3164 ft 223 kts 91°
2026-05-08 08:55 51.47651 -0.63187 3866 ft 255 kts 92°
2026-05-08 08:56 51.47624 -0.60185 4718 ft 283 kts 91°
2026-05-08 08:56 51.47718 -0.56828 5394 ft 317 kts 89°
2026-05-08 08:56 51.47750 -0.53173 6240 ft 330 kts 92°
2026-05-08 08:56 51.47714 -0.49562 6950 ft 306 kts 94°
2026-05-08 08:57 51.47613 -0.46382 7610 ft 264 kts 95°
2026-05-08 08:57 51.47515 -0.43604 8287 ft 241 kts 96°
2026-05-08 08:57 51.47419 -0.40930 9024 ft 240 kts 96°
2026-05-08 08:57 51.47320 -0.38264 9768 ft 245 kts 96°
2026-05-08 08:58 51.47215 -0.35490 10483 ft 250 kts 96°
2026-05-08 08:58 51.47108 -0.32667 10752 ft 256 kts 96°
2026-05-08 08:58 51.46996 -0.29781 10377 ft 261 kts 97°
2026-05-08 08:58 51.46773 -0.26891 10046 ft 260 kts 100°
2026-05-08 08:59 51.46514 -0.24031 9733 ft 258 kts 101°
2026-05-08 08:59 51.46250 -0.21193 9407 ft 256 kts 101°
2026-05-08 08:59 51.45988 -0.18378 9064 ft 254 kts 101°
2026-05-08 08:59 51.45731 -0.15625 8751 ft 252 kts 102°
2026-05-08 09:00 51.45165 -0.13026 8354 ft 246 kts 132°
2026-05-08 09:00 51.43806 -0.11522 8008 ft 238 kts 166°
2026-05-08 09:00 51.42188 -0.11355 7717 ft 234 kts 192°
2026-05-08 09:00 51.40700 -0.12347 7383 ft 234 kts 216°
2026-05-08 09:01 51.39641 -0.14308 7047 ft 237 kts 243°
2026-05-08 09:01 51.39260 -0.16874 6716 ft 241 kts 270°
2026-05-08 09:01 51.39688 -0.19467 6375 ft 245 kts 296°
2026-05-08 09:01 51.40414 -0.21922 6045 ft 242 kts 278°
2026-05-08 09:02 51.40265 -0.24491 5644 ft 235 kts 239°
2026-05-08 09:02 51.39150 -0.26285 5297 ft 228 kts 204°
2026-05-08 09:02 51.37747 -0.27446 5004 ft 228 kts 218°
2026-05-08 09:02 51.36894 -0.29588 4618 ft 236 kts 256°
2026-05-08 09:03 51.36615 -0.32157 4516 ft 233 kts 248°
2026-05-08 09:03 51.35685 -0.34179 4508 ft 227 kts 207°
2026-05-08 09:03 51.34191 -0.34871 4476 ft 226 kts 193°
2026-05-08 09:03 51.32820 -0.36061 4410 ft 226 kts 218°
2026-05-08 09:04 51.31579 -0.37451 4282 ft 219 kts 205°
2026-05-08 09:04 51.30338 -0.38865 3993 ft 225 kts 234°
2026-05-08 09:04 51.29910 -0.41291 4017 ft 236 kts 275°
2026-05-08 09:04 51.30559 -0.43675 4018 ft 239 kts 309°
2026-05-08 09:05 51.31664 -0.45678 4115 ft 240 kts 307°
2026-05-08 09:05 51.32568 -0.47895 4152 ft 238 kts 291°
2026-05-08 09:05 51.33142 -0.50369 3995 ft 236 kts 288°
2026-05-08 09:05 51.33623 -0.52861 3920 ft 233 kts 271°
2026-05-08 09:06 51.33550 -0.55444 3897 ft 234 kts 269°
2026-05-08 09:06 51.33698 -0.58006 3707 ft 233 kts 275°
2026-05-08 09:06 51.33911 -0.60559 3667 ft 228 kts 277°
2026-05-08 09:06 51.34214 -0.63036 3611 ft 226 kts 281°
2026-05-08 09:07 51.34621 -0.65471 3548 ft 227 kts 285°
2026-05-08 09:07 51.35132 -0.67861 3479 ft 227 kts 289°
2026-05-08 09:07 51.35703 -0.70216 3276 ft 227 kts 290°
2026-05-08 09:07 51.36288 -0.72554 3052 ft 225 kts 290°
2026-05-08 09:08 51.36884 -0.74839 2841 ft 225 kts 292°
2026-05-08 09:08 51.37614 -0.77066 2695 ft 226 kts 302°
2026-05-08 09:08 51.38663 -0.78932 2566 ft 227 kts 324°
2026-05-08 09:08 51.40107 -0.79871 2578 ft 228 kts 349°
2026-05-08 09:09 51.41679 -0.80174 2537 ft 227 kts
2026-05-08 09:09 51.43236 -0.79888 2440 ft 224 kts 17°
2026-05-08 09:09 51.44645 -0.78984 2493 ft 209 kts 34°
2026-05-08 09:09 51.45598 -0.77462 2546 ft 187 kts 67°
2026-05-08 09:10 51.46094 -0.75566 2687 ft 184 kts 72°
2026-05-08 09:10 51.46553 -0.73677 2643 ft 184 kts 74°
2026-05-08 09:10 51.46896 -0.71763 2464 ft 173 kts 85°
2026-05-08 09:10 51.47031 -0.69877 2183 ft 169 kts 90°
2026-05-08 09:11 51.47169 -0.68009 2113 ft 170 kts 80°
2026-05-08 09:11 51.47467 -0.66158 2143 ft 171 kts 80°
2026-05-08 09:11 51.47678 -0.64353 1977 ft 161 kts 87°
2026-05-08 09:11 51.47779 -0.62582 1657 ft 157 kts 92°
2026-05-08 09:12 51.47760 -0.60848 1406 ft 155 kts 97°
2026-05-08 09:12 51.47692 -0.59121 1146 ft 153 kts 97°
2026-05-08 09:12 51.47671 -0.57429 1045 ft 154 kts 91°
2026-05-08 09:12 51.47705 -0.55708 899 ft 154 kts 90°
2026-05-08 09:13 51.47716 -0.53997 759 ft 152 kts 91°
2026-05-08 09:13 51.47728 -0.52290 551 ft 151 kts 91°
2026-05-08 09:13 51.47738 -0.50605 363 ft 151 kts 91°
2026-05-08 09:13 51.47750 -0.48920 174 ft 150 kts 91°
2026-05-08 09:14 51.47750 -0.47291 93 ft 128 kts 90°
2026-05-08 09:14 51.47754 -0.46292 97 ft 51 kts 89°
2026-05-08 09:14 51.47755 -0.45737 94 ft 63 kts 90°
2026-05-08 09:14 51.47627 -0.45462 93 ft 29 kts 183°
2026-05-08 09:15 51.47590 -0.45465 94 ft 0 kts 182°
2026-05-08 09:16 51.47563 -0.45468 94 ft 14 kts 189°
2026-05-08 09:16 51.47510 -0.45707 97 ft 21 kts 277°
2026-05-08 09:16 51.47519 -0.45857 95 ft 31 kts 270°
2026-05-08 09:16 51.47518 -0.46023 93 ft 6 kts 269°
2026-05-08 09:17 51.47516 -0.46186 93 ft 23 kts 269°
2026-05-08 09:17 51.47517 -0.46502 93 ft 31 kts 270°
2026-05-08 09:17 51.47514 -0.46682 95 ft 1 kts 260°
2026-05-08 09:17 51.47502 -0.46746 95 ft 18 kts 256°
2026-05-08 09:18 51.47481 -0.46897 96 ft 4 kts 202°
2026-05-08 09:18 51.47415 -0.46887 96 ft 15 kts 171°
2026-05-08 09:18 51.47274 -0.46869 96 ft 26 kts 180°
2026-05-08 09:18 51.47116 -0.46871 96 ft 20 kts 180°
2026-05-08 09:19 51.46987 -0.46868 95 ft 9 kts 179°
2026-05-08 09:19 51.46926 -0.46906 94 ft 11 kts 231°
2026-05-08 09:19 51.46918 -0.46943 98 ft 1 kts 271°
2026-05-08 09:19 51.46919 -0.46978 96 ft 5 kts 271°
2026-05-08 09:20 51.46919 -0.46988 97 ft 0 kts 271°